{"data":{"norad_id":39269,"epoch":"2026-09-20T02:15:31.160160Z","epoch_age_seconds":39194,"freshness":"FRESH","line1":"1 39269U 13055E   26263.09411065  .00013014  00000+0  21596-3 0  9992","line2":"2 39269  80.9916  35.3003 0405215 248.3628 107.3978 14.94006793677376","mean_motion":14.94006793,"eccentricity":0.0405215,"inclination_deg":80.9916,"raan_deg":35.3003,"arg_perigee_deg":248.3628,"mean_anomaly_deg":107.3978,"bstar":0.00021596,"rev_number":67737,"period_min":96.385103919671,"perigee_km":303.28199460184,"apogee_km":867.63256585436,"semimajor_km":6963.5942802281,"source":"CELESTRAK","updated_at":"2026-09-20T09:00:48.021671Z"}}